User: anonymous   Login
Location: Caltech
(34.1382°N, 118.1253°W)
Time: 14:46:51
(UTC-07:00)
Language:

Courier 1B - Orbit

View from above orbital plane
View from above orbital plane
View from above satellite
View from above satellite

Ground track
Ground track

The orbit data is extracted from the following two-line orbital elements,

1 00058U 60013A   15115.48944308  .00000110  00000-0  40400-4 0  9990
2 00058 028.3282 271.9996 0165067 345.1249 014.4483 13.46292238685616
Epoch (UTC): 25 April 2015 11:44:47
Eccentricity: 0.0165067
inclination: 28.3282°
perigee height: 963 km
apogee height: 1209 km
right ascension of ascending node: 271.9996°
argument of perigee: 345.1249°
revolutions per day: 13.46292238
mean anomaly at epoch: 14.4483°
orbit number at epoch: 68561

The dashed part of the orbit path shows where the satellite is in the earth's shadow,  

DLR